ORBCOMM FM109

Last updated on Wed Aug 19 2026 00:03:10 GMT+0000 (Coordinated Universal Time)

1 40086U 14040A 26230.21535536 .00000324 00000+0 10474-3 0 9997 2 40086 47.0026 158.2107 0000880 174.6775 185.4120 14.58894046643403
UTC large
Height (km)
Speed (km/s)
/
Latitude / Longitude
Inclination (degrees)
Orbital Period (minutes)
Azimuth
Elevation
Range (km)
Doppler Factor

Next 0 passes for location: London (51.5072 / 0.1276)

No passes found over London.
ORBCOMM FM109